[[{"header":{"parameterUnit":"m.s-1","parameterCategory":1,"la1":30.2991,"la2":30.254,"lo1":-89.0895,"lo2":-89.0444,"dy":0.0017,"dx":0.0017,"nx":28,"ny":28,"refTime":"2025-07-21T09:00:00:Z","depth":0,"parameterNumber":2,"parameterNumberName":"U-component_of_WINDS"},"data":[0,0,0,0,0,0,0,0,0,0,0,0,0,0,0,0,0,0,0,0,0,0,0,0,0,0,0,0,0,0,0,0,0,0,0,0,0,0,0,0,0,0,0,0,0,0,0,0,0,0,0,0,0,0,0,0,0,0,2.0036,2.0037,0,2.012,2.0121,2.0122,2.0143,2.0143,2.0142,2.0142,2.0231,2.0234,2.0237,0,0,0,0,0,0,0,0,0,0,0,0,0,1.9896,1.9899,2.0036,2.0037,2.0038,2.012,2.0121,2.0122,2.0144,2.0143,2.0142,2.0142,2.023,2.0233,2.0237,0,0,0,0,0,0,0,0,0,0,0,0,0,1.9966,1.9899,2.0035,2.0058,2.0061,2.012,2.0121,2.0123,2.0144,2.0143,2.0142,2.0141,2.0229,2.0233,2.0237,2.028,0,0,2.0251,2.0252,0,0,0,0,0,0,0,0,1.9962,1.9971,2.0054,2.0057,2.006,2.012,2.0105,2.0176,2.0144,2.0112,2.0142,2.0141,2.0195,2.0202,2.022,2.0284,2.0288,2.0251,2.0254,2.0255,2.0257,0,0,0,0,0,0,0,1.9957,1.9968,2.0069,2.0055,2.0059,2.0065,2.0074,2.0118,2.0157,2.0115,2.0117,2.0126,2.0197,2.0216,2.0222,2.029,2.0251,2.0255,2.0257,2.0259,2.0395,2.0396,0,0,0,0,0,0,1.9948,1.9964,2.0066,2.0072,2.0008,2.0068,2.0079,2.0102,2.0157,2.0164,2.0127,2.0127,2.0209,2.0217,2.0225,2.028,2.0255,2.0259,2.0262,2.0394,2.0395,2.0397,0,0,0,0,0,0,1.9945,1.9957,2.0063,2.0018,2.0032,2.0072,2.0098,2.0104,2.0123,2.0166,2.0173,2.0139,2.0208,2.0219,2.0267,2.0283,2.0261,2.0265,2.0393,2.0395,2.0396,2.0389,0,0,0,0,0,0,1.9941,1.9956,1.9972,2.0018,2.0034,2.0102,2.0099,2.0106,2.013,2.0131,2.0179,2.0186,2.0208,2.026,2.0271,2.0289,2.0269,2.0392,2.0394,2.0395,2.0388,2.039,2.0392,0,0,0,0,0,1.9936,1.9967,1.9972,1.9985,2.0055,2.0103,2.0112,2.0136,2.0131,2.0148,2.0176,2.0185,2.028,2.0265,2.0277,2.0297,2.0391,2.0393,2.0395,2.0387,2.039,2.0392,0,0,0,0,0,0,1.9922,1.9973,1.998,2.0027,2.006,2.0106,2.0128,2.0138,2.0174,2.0174,2.0203,2.0214,2.026,2.0283,2.0265,2.0342,2.0335,2.034,2.0325,2.0328,2.033,2.0323,2.0272,0,0,0,0,0,1.9924,1.9957,2.0001,2.0038,2.0054,2.0088,2.011,2.0126,2.0162,2.0176,2.0208,2.0243,2.0281,2.0306,2.0343,2.0391,2.0403,2.0411,2.0413,2.0415,2.0419,2.0447,2.0452,2.0404,2.0404,2.0404,0,0,1.9929,1.9961,1.9981,2.0036,2.0064,2.0099,2.01,2.0137,2.0164,2.0182,2.0229,2.0253,2.0295,2.0343,2.0366,2.0364,2.0434,2.0418,2.0418,2.0422,2.045,2.0455,2.0459,2.0406,2.0405,2.0405,0,0,1.9956,1.9983,2.0018,2.0046,2.0087,2.011,2.0118,2.0163,2.018,2.0227,2.0242,2.0275,2.0339,2.0369,2.0392,2.0431,2.0441,2.0443,2.0454,2.0481,2.0485,2.0489,2.0504,2.0509,2.0447,2.0447,2.0447,0,1.9957,2.001,2.0034,2.0071,2.0095,2.0113,2.0149,2.0175,2.0227,2.0244,2.0241,2.0323,2.0352,2.0408,2.0418,2.0436,2.0447,2.0438,2.0482,2.0486,2.049,2.0505,2.051,2.0447,2.0447,2.0447,2.0447,0,2.001,2.0047,2.007,2.0119,2.0146,2.0182,2.0212,2.0237,2.0251,2.0274,2.0323,2.0358,2.0404,2.0418,2.0432,2.0477,2.0474,2.0476,2.0471,2.0494,2.0508,2.0514,2.0447,2.0447,2.0447,2.0447,0,0,2.0031,2.0093,2.0101,2.0124,2.0172,2.0201,2.0239,2.0282,2.0303,2.0339,2.0372,2.0427,2.0429,2.0456,2.0473,2.0497,2.0527,2.0497,2.0498,2.0502,2.058,2.0579,2.0585,2.0534,2.0535,2.0536,2.0577,0,2.0065,2.0131,2.0154,2.0209,2.0244,2.0262,2.0295,2.0328,2.0351,2.0385,2.0411,2.0449,2.0449,2.0465,2.049,2.0518,2.0544,2.0516,2.0566,2.0568,2.0556,2.0592,2.0591,2.0628,2.0583,2.0584,2.0584,0,2.0113,2.0149,2.0207,2.0251,2.0267,2.0296,2.0338,2.037,2.0409,2.0424,2.0454,2.047,2.0511,2.0502,2.056,2.0541,2.0563,2.058,2.0582,2.0588,2.0578,2.06,2.064,2.0645,2.0593,2.0593,2.0592,0,2.0123,2.0186,2.0229,2.0249,2.0301,2.0321,2.0344,2.0382,2.0407,2.0445,2.0462,2.0503,2.0527,2.0559,2.0587,2.0578,2.0643,2.0636,2.0658,2.0657,2.0671,2.067,2.0715,2.0684,2.0684,2.0684,2.0683,0,2.0159,2.0194,2.0235,2.0262,2.0302,2.0329,2.0369,2.0393,2.0427,2.046,2.0478,2.0508,2.0542,2.0578,2.0599,2.0645,2.0655,2.0669,2.0675,2.0668,2.0666,2.0683,2.0682,2.0685,2.0685,2.0684,2.0684,0,2.0178,2.0206,2.0255,2.03,2.0313,2.0341,2.038,2.0408,2.0431,2.0473,2.0484,2.0522,2.0565,2.0595,2.065,2.0665,2.0714,2.0719,2.07,2.0703,2.0723,2.0721,2.0782,2.0792,2.0753,2.0753,2.0754,0,2.0199,2.0226,2.0275,2.0298,2.0321,2.0357,2.0383,2.0411,2.0437,2.0484,2.0506,2.055,2.0586,2.0654,2.0687,2.0729,2.0736,2.0755,2.0743,2.0735,2.0738,2.0736,2.0739,2.0756,2.0757,2.0757,2.0757,0,2.0234,2.0247,2.0282,2.0323,2.0353,2.0387,2.0421,2.0439,2.0473,2.0502,2.0546,2.0574,2.063,2.0674,2.072,2.0745,2.0757,2.076,2.0768,2.0762,2.075,2.0757,2.0706,2.0759,2.0759,2.0759,2.0759,2.0759,2.0255,2.0281,2.0319,2.0359,2.0387,2.0419,2.0447,2.0474,2.0511,2.0558,2.0573,2.0618,2.0658,2.072,2.0746,2.0783,2.0782,2.0793,2.0795,2.0798,2.0798,2.0744,2.0791,2.0791,2.0791,2.0791,2.0791,0,2.0292,2.0318,2.0354,2.0401,2.0432,2.044,2.0478,2.0505,2.0544,2.0579,2.0615,2.0665,2.0708,2.0744,2.0789,2.0812,2.0818,2.0822,2.0821,2.0827,2.0796,2.0785,2.0816,2.0816,2.0816,2.0816,2.0816,2.0816,2.0315,2.0359,2.0377,2.0436,2.0461,2.0505,2.0527,2.0556,2.0585,2.064,2.0675,2.0698,2.0735,2.0782,2.0822,2.0832,2.0848,2.0851,2.0862,2.0832,2.0829,2.0827,2.0817,2.0854,2.0854,2.0891,2.0891,2.0891]},{"header":{"parameterUnit":"m.s-1","parameterCategory":1,"la1":30.2991,"la2":30.254,"lo1":-89.0895,"lo2":-89.0444,"dy":0.0017,"dx":0.0017,"nx":28,"ny":28,"refTime":"2025-07-21T09:00:00:Z","depth":0,"parameterNumber":3,"parameterNumberName":"V-component_of_WINDS"},"data":[0,0,0,0,0,0,0,0,0,0,0,0,0,0,0,0,0,0,0,0,0,0,0,0,0,0,0,0,0,0,0,0,0,0,0,0,0,0,0,0,0,0,0,0,0,0,0,0,0,0,0,0,0,0,0,0,0,0,0.1319,0.1319,0,0.1246,0.1245,0.1244,0.1211,0.1211,0.1211,0.1211,0.1135,0.1133,0.1131,0,0,0,0,0,0,0,0,0,0,0,0,0,0.1429,0.1428,0.1319,0.1318,0.1318,0.1246,0.1245,0.1244,0.1211,0.1211,0.1211,0.1211,0.1135,0.1133,0.113,0,0,0,0,0,0,0,0,0,0,0,0,0,0.1371,0.1427,0.132,0.1292,0.1289,0.1246,0.1245,0.1244,0.1211,0.1211,0.1211,0.1211,0.1136,0.1133,0.113,0.1108,0,0,0.112,0.1119,0,0,0,0,0,0,0,0,0.1375,0.1367,0.1297,0.1294,0.1291,0.1238,0.1256,0.1198,0.1211,0.1241,0.1211,0.1211,0.1169,0.1163,0.1149,0.1104,0.1101,0.112,0.1118,0.1117,0.1116,0,0,0,0,0,0,0,0.1379,0.137,0.129,0.1296,0.1292,0.1283,0.1275,0.1245,0.1205,0.1238,0.1235,0.1227,0.1167,0.1152,0.1147,0.11,0.112,0.1117,0.1115,0.1114,0.1033,0.1033,0,0,0,0,0,0,0.1387,0.1374,0.1293,0.1288,0.1334,0.1281,0.1272,0.1254,0.1205,0.1198,0.1227,0.1226,0.1157,0.1151,0.1144,0.1114,0.1117,0.1114,0.1112,0.1033,0.1033,0.1033,0,0,0,0,0,0,0.139,0.138,0.1296,0.133,0.1319,0.1279,0.126,0.1253,0.1238,0.1197,0.119,0.1219,0.1157,0.1148,0.1117,0.1111,0.1112,0.111,0.1034,0.1033,0.1033,0.1056,0,0,0,0,0,0,0.1393,0.1382,0.1373,0.133,0.1317,0.127,0.1259,0.1251,0.1233,0.123,0.1188,0.1181,0.1157,0.1122,0.1114,0.1107,0.1107,0.1034,0.1034,0.1033,0.1055,0.1056,0.1057,0,0,0,0,0,0.1397,0.1382,0.1373,0.1363,0.1306,0.127,0.1263,0.1236,0.1232,0.1223,0.1197,0.1182,0.1113,0.1119,0.111,0.1102,0.1034,0.1034,0.1033,0.1055,0.1056,0.1057,0,0,0,0,0,0,0.1425,0.1376,0.1365,0.1336,0.1308,0.1265,0.1252,0.1238,0.1209,0.1208,0.1175,0.1166,0.1137,0.1116,0.1124,0.1077,0.1072,0.107,0.1092,0.1093,0.1094,0.1099,0.1104,0,0,0,0,0,0.1428,0.1404,0.1362,0.1341,0.1327,0.1292,0.1276,0.1257,0.1226,0.1214,0.1185,0.1155,0.1127,0.1109,0.108,0.1052,0.1042,0.1042,0.1043,0.1044,0.1042,0.1025,0.1024,0.1031,0.1031,0.1031,0,0,0.1434,0.1404,0.1391,0.1346,0.1321,0.1296,0.1282,0.1256,0.1237,0.121,0.1178,0.1156,0.1121,0.1091,0.1076,0.1072,0.1038,0.1043,0.1044,0.1041,0.1024,0.1023,0.1023,0.1031,0.1031,0.1031,0,0,0.1431,0.1407,0.1386,0.1362,0.1325,0.1302,0.1297,0.1256,0.124,0.1208,0.1187,0.1164,0.1116,0.1091,0.1072,0.106,0.1044,0.1051,0.1055,0.1039,0.1038,0.1038,0.1033,0.1031,0.105,0.105,0.105,0,0.1443,0.1405,0.1377,0.1352,0.1332,0.1307,0.1285,0.1263,0.1219,0.1205,0.1202,0.1141,0.1115,0.1078,0.1075,0.1061,0.1054,0.1056,0.1041,0.104,0.1039,0.1034,0.1032,0.1051,0.1051,0.105,0.105,0,0.142,0.1394,0.1381,0.134,0.1319,0.1296,0.1264,0.1246,0.1229,0.1206,0.1174,0.1142,0.1106,0.1096,0.108,0.1057,0.1056,0.1047,0.1041,0.104,0.1034,0.1032,0.1052,0.1052,0.1052,0.1051,0,0,0.1433,0.1376,0.1372,0.1353,0.131,0.1289,0.1265,0.123,0.1215,0.1185,0.1163,0.1123,0.1115,0.1093,0.1074,0.1059,0.1051,0.1052,0.1051,0.1052,0.1023,0.103,0.1028,0.1041,0.104,0.104,0.1026,0,0.1424,0.138,0.1353,0.1319,0.1294,0.1269,0.1247,0.1219,0.1197,0.1172,0.1147,0.1119,0.111,0.1097,0.1082,0.1055,0.1044,0.1056,0.1019,0.1018,0.1028,0.1025,0.1032,0.102,0.1024,0.1023,0.1023,0,0.1408,0.1379,0.1343,0.1302,0.1291,0.1272,0.1238,0.1215,0.1182,0.1166,0.1142,0.1123,0.1095,0.1092,0.1053,0.1061,0.1045,0.1029,0.1028,0.1023,0.102,0.102,0.1016,0.1014,0.1019,0.102,0.102,0,0.1421,0.1373,0.1344,0.1328,0.1281,0.1268,0.1248,0.1215,0.1195,0.1166,0.1152,0.112,0.1102,0.1077,0.1048,0.1049,0.1012,0.1006,0.0998,0.0999,0.0991,0.0992,0.0984,0.0981,0.0981,0.0981,0.0981,0,0.1413,0.1392,0.1349,0.1332,0.1306,0.1276,0.1252,0.1229,0.12,0.1177,0.1154,0.1133,0.1097,0.1071,0.1049,0.102,0.1012,0.0998,0.0992,0.1,0.1002,0.0988,0.0988,0.0981,0.0981,0.0981,0.0981,0,0.1423,0.1394,0.1361,0.1319,0.1308,0.1291,0.1254,0.1236,0.1213,0.1184,0.1176,0.1139,0.1107,0.1077,0.1035,0.102,0.099,0.0983,0.1002,0.0998,0.0991,0.0992,0.0975,0.0971,0.0971,0.0971,0.0971,0,0.142,0.1403,0.1359,0.1342,0.1322,0.1295,0.1275,0.1245,0.1225,0.1186,0.1172,0.1139,0.1111,0.1062,0.1031,0.0998,0.0989,0.0986,0.0984,0.0992,0.0989,0.099,0.0988,0.0986,0.0986,0.0987,0.0987,0,0.1417,0.1404,0.1376,0.1344,0.1321,0.1294,0.1266,0.1253,0.1217,0.1196,0.1164,0.1142,0.1099,0.1066,0.103,0.1008,0.0991,0.0987,0.0983,0.0991,0.1002,0.0995,0.1003,0.0988,0.0988,0.0988,0.0987,0.0987,0.142,0.1403,0.137,0.134,0.1315,0.129,0.127,0.1244,0.1217,0.118,0.1163,0.1131,0.1097,0.1047,0.1025,0.0999,0.0994,0.0989,0.0988,0.0987,0.0988,0.1007,0.0992,0.0992,0.0992,0.0992,0.0992,0,0.1416,0.1393,0.1366,0.1327,0.1304,0.129,0.1258,0.1239,0.1211,0.1181,0.1154,0.1116,0.1084,0.1051,0.1017,0.1002,0.0993,0.0994,0.0994,0.0989,0.0994,0.1,0.1001,0.1001,0.1001,0.1001,0.1001,0.1001,0.1411,0.1382,0.1364,0.1322,0.1299,0.1267,0.125,0.1226,0.1202,0.1161,0.1134,0.1113,0.1081,0.1045,0.1014,0.1005,0.0993,0.0996,0.0985,0.099,0.0989,0.0989,0.0994,0.0994,0.0994,0.0982,0.0982,0.0982]}]]